TimeIST,TemperatureF,Dew PointF,Humidity,Sea Level PressureIn,VisibilityMPH,Wind Direction,Wind SpeedMPH,Gust SpeedMPH,PrecipitationIn,Events,Conditions,WindDirDegrees,DateUTC
12:50 AM,55.4,51.8,88,29.98,4.3,East,2.3,-,N/A,,Mostly Cloudy,100,2013-01-04 22:50:00
1:50 AM,55.4,51.8,88,29.95,5.0,ESE,3.5,-,N/A,,Scattered Clouds,120,2013-01-04 23:50:00
2:00 AM,55,52,85,29.97,5,ESE,3.5,,,,Mist,120,2013-01-05 00:00:00
2:50 AM,55.4,50.0,82,29.95,6.2,SSE,5.8,-,N/A,,Scattered Clouds,160,2013-01-05 00:50:00
3:32 AM,53.6,50.0,88,29.95,1.9,SW,6.9,-,N/A,Rain,Rain,220,2013-01-05 01:32:00
3:47 AM,55.4,51.8,88,29.95,5.6,SW,4.6,-,N/A,Rain,Light Rain,230,2013-01-05 01:47:00
3:50 AM,55.4,51.8,88,29.95,5.6,SSW,3.5,-,N/A,Rain,Light Rain,210,2013-01-05 01:50:00
4:50 AM,55.4,51.8,88,29.95,6.2,SSE,8.1,-,N/A,,Scattered Clouds,150,2013-01-05 02:50:00
5:50 AM,55.4,51.8,88,29.95,5.6,SSE,8.1,-,N/A,,Scattered Clouds,150,2013-01-05 03:50:00
6:50 AM,53.6,51.8,94,29.95,3.7,SSE,8.1,-,N/A,,Scattered Clouds,150,2013-01-05 04:50:00
7:50 AM,55.4,51.8,88,29.95,5.6,SSE,6.9,-,N/A,,Scattered Clouds,150,2013-01-05 05:50:00
8:00 AM,55,52,86,29.96,6,SSE,6.9,,,,Mist,150,2013-01-05 06:00:00
8:50 AM,57.2,51.8,82,29.95,5.6,South,12.7,-,N/A,,Partly Cloudy,180,2013-01-05 06:50:00
9:50 AM,60.8,53.6,77,29.95,5.6,South,13.8,-,N/A,,Scattered Clouds,180,2013-01-05 07:50:00
10:32 AM,60.8,53.6,77,29.95,5.6,South,9.2,-,N/A,Thunderstorm,Thunderstorm,190,2013-01-05 08:32:00
10:50 AM,57.2,50.0,77,29.95,5.6,West,4.6,-,N/A,Rain-Thunderstorm,Light Thunderstorms and Rain,260,2013-01-05 08:50:00
10:54 AM,57.2,50.0,77,29.95,1.2,NNW,9.2,-,N/A,Rain-Thunderstorm,Rain Showers,330,2013-01-05 08:54:00
11:12 AM,55.4,50.0,82,29.95,6.2,WSW,4.6,-,N/A,,Scattered Clouds,250,2013-01-05 09:12:00
11:50 AM,57.2,51.8,82,29.95,6.2,South,5.8,-,N/A,,Scattered Clouds,190,2013-01-05 09:50:00
12:41 PM,59.0,51.8,77,29.92,5.0,SSE,11.5,-,N/A,Rain,Rain,150,2013-01-05 10:41:00
12:49 PM,57.2,51.8,82,29.89,6.2,SSE,13.8,-,N/A,,Mostly Cloudy,160,2013-01-05 10:49:00
12:50 PM,57.2,51.8,82,29.89,6.2,SSE,13.8,-,N/A,,Mostly Cloudy,160,2013-01-05 10:50:00
1:50 PM,59.0,53.6,82,29.89,6.2,SSE,9.2,-,N/A,,Mostly Cloudy,160,2013-01-05 11:50:00
2:26 PM,57.2,51.8,82,29.89,6.2,SSW,17.3,28.8,N/A,,Mostly Cloudy,210,2013-01-05 12:26:00
2:50 PM,57.2,51.8,82,29.89,6.2,SSW,17.3,28.8,N/A,,Mostly Cloudy,210,2013-01-05 12:50:00
3:35 PM,55.4,51.8,88,29.89,5.0,West,10.4,-,N/A,Rain,Rain,280,2013-01-05 13:35:00
3:50 PM,55.4,51.8,88,29.89,5.6,West,10.4,-,N/A,Rain,Rain,280,2013-01-05 13:50:00
4:00 PM,55.4,51.8,88,29.89,6.2,West,5.8,-,N/A,Rain,Light Rain,280,2013-01-05 14:00:00
4:50 PM,55.4,51.8,88,29.89,6.2,ESE,2.3,-,N/A,Rain,Light Rain,120,2013-01-05 14:50:00
5:26 PM,55.4,51.8,88,29.89,1.9,North,8.1,-,N/A,Rain,Rain Showers,360,2013-01-05 15:26:00
5:41 PM,55.4,51.8,88,29.89,3.1,SSW,11.5,-,N/A,Rain,Rain,200,2013-01-05 15:41:00
5:50 PM,55.4,51.8,88,29.89,3.1,SSW,11.5,-,N/A,Rain,Rain,200,2013-01-05 15:50:00
6:01 PM,55.4,51.8,88,29.89,1.2,ENE,8.1,-,N/A,Rain,Heavy Rain,70,2013-01-05 16:01:00
6:20 PM,53.6,51.8,94,29.89,6.2,NNE,3.5,-,N/A,Rain,Light Rain,30,2013-01-05 16:20:00
6:27 PM,55.4,51.8,88,29.89,5.0,ESE,5.8,-,N/A,Rain,Rain,110,2013-01-05 16:27:00
6:40 PM,53.6,51.8,94,29.89,2.5,ESE,11.5,-,N/A,Rain,Heavy Rain,120,2013-01-05 16:40:00
6:50 PM,53.6,51.8,94,29.89,2.5,ESE,11.5,-,N/A,Rain,Heavy Rain,120,2013-01-05 16:50:00
6:55 PM,55.4,51.8,88,29.89,6.2,East,4.6,-,N/A,Rain,Light Rain,80,2013-01-05 16:55:00
7:04 PM,53.6,51.8,94,29.89,0.6,East,4.6,-,N/A,Rain-Thunderstorm,Rain Showers,100,2013-01-05 17:04:00
7:15 PM,55.4,51.8,88,29.89,5.6,SE,2.3,-,N/A,Rain-Thunderstorm,Light Thunderstorms and Rain,140,2013-01-05 17:15:00
7:25 PM,55.4,51.8,88,29.89,5.0,NW,2.3,-,N/A,Rain,Rain,310,2013-01-05 17:25:00
7:35 PM,55.4,51.8,88,29.89,2.5,SSE,6.9,-,N/A,Rain,Heavy Rain,160,2013-01-05 17:35:00
7:50 PM,53.6,51.8,94,29.89,2.5,ESE,11.5,-,N/A,Rain,Heavy Rain,120,2013-01-05 17:50:00
7:53 PM,53.6,51.8,94,29.89,6.2,SE,5.8,-,N/A,Rain,Light Rain,140,2013-01-05 17:53:00
8:00 PM,55,52,86,29.90,2,ESE,11.5,,,Rain,Rain,120,2013-01-05 18:00:00
8:50 PM,55.4,51.8,88,29.89,6.2,SE,10.4,-,N/A,Rain,Light Rain,130,2013-01-05 18:50:00
9:50 PM,55.4,51.8,88,29.89,2.5,SSE,10.4,-,N/A,Rain,Rain,160,2013-01-05 19:50:00
9:53 PM,55.4,51.8,88,29.89,2.5,SSE,10.4,-,N/A,Rain-Thunderstorm,Thunderstorms and Rain,160,2013-01-05 19:53:00
10:15 PM,55.4,51.8,88,29.86,5.0,SSE,8.1,-,N/A,Rain,Rain,150,2013-01-05 20:15:00
10:23 PM,55.4,51.8,88,29.86,2.5,SSE,8.1,-,N/A,Rain-Thunderstorm,Thunderstorms and Rain,150,2013-01-05 20:23:00
10:25 PM,55.4,51.8,88,29.86,1.2,SE,9.2,-,N/A,Rain-Thunderstorm,Rain Showers,140,2013-01-05 20:25:00
10:36 PM,55.4,51.8,88,29.86,2.5,SE,13.8,-,N/A,Rain-Thunderstorm,Thunderstorms and Rain,140,2013-01-05 20:36:00
10:45 PM,55.4,51.8,88,29.86,1.2,SE,13.8,-,N/A,Rain-Thunderstorm,Heavy Rain Showers,140,2013-01-05 20:45:00
10:46 PM,55.4,51.8,88,29.86,1.2,SE,13.8,-,N/A,Rain-Thunderstorm,Heavy Rain Showers,140,2013-01-05 20:46:00
10:50 PM,55.4,51.8,88,29.86,1.2,SE,13.8,-,N/A,Rain-Thunderstorm,Heavy Rain Showers,140,2013-01-05 20:50:00
11:04 PM,55.4,51.8,88,29.86,5.6,SE,8.1,-,N/A,Rain,Light Rain,140,2013-01-05 21:04:00
11:27 PM,55.4,51.8,88,29.86,3.1,South,8.1,20.7,N/A,Rain,Rain,170,2013-01-05 21:27:00
11:48 PM,55.4,51.8,88,29.86,5.0,SE,11.5,-,N/A,Rain,Light Rain,140,2013-01-05 21:48:00
11:49 PM,55.4,51.8,88,29.86,5.0,SE,11.5,-,N/A,Rain,Light Rain,140,2013-01-05 21:49:00
11:50 PM,55.4,51.8,88,29.86,5.0,SE,11.5,-,N/A,Rain,Light Rain,140,2013-01-05 21:50:00